User: anonymous   Login
Location: Unspecified
(0.0000°N, 0.0000°E)
Time: 01:55:16
(UTC+00:00)
Language:

A-11 Canister half - Orbit

View from above orbital plane
View from above orbital plane
View from above satellite
View from above satellite

Ground track
Ground track

The orbit data is extracted from the following two-line orbital elements,

1    53U 60009E   19145.03341685 -.00000025  00000-0  58873-3 0  9995
2    53  47.2783  19.8739 0099983  10.8586 349.4332 12.17228057621130
Epoch (UTC): 25 May 2019 00:48:07
Eccentricity: 0.0099983
inclination: 47.2783°
perigee height: 1525 km
apogee height: 1684 km
right ascension of ascending node: 19.8739°
argument of perigee: 10.8586°
revolutions per day: 12.17228057
mean anomaly at epoch: 349.4332°
orbit number at epoch: 62113

The dashed part of the orbit path shows where the satellite is in the earth's shadow,  

DLR